Flag for China Weather past 2 weeks in Guangzhou, Guangdong, China

Now
82 °F

Passing clouds.


Feels Like: 94 °F
Forecast: 81 / 89 °F
Wind: 3 mph from Northeast

Location: Canton Airport

Current Time: Jun 2, 2015 at 10:00:56 PM

Latest Report: Jun 2, 2015 at 9:30 PM


Visibility: 5 mi

Pressure: 29.80 "Hg

Humidity: 94%

Dew point: 81 °F

Location of GuangzhouLocation

Historic Weather in Guangzhou — Graph

°F

Guangzhou temperature yesterday

Maximum temperature yesterday: 90 °F (at 12:00 PM)
Minimum temperature yesterday: 75 °F (at 12:00 AM)
Average temperature yesterday: 79 °F

Past Weeks' High & Low Weather Summary

 TemperatureHumidityPressure
High97 °F (May 29, 3:00 PM)100% (May 20, 10:00 AM)29.80 "Hg (May 20, 10:00 AM)
Low72 °F (May 21, 11:00 PM)56% (May 29, 3:00 PM)29.56 "Hg (May 28, 4:00 PM)
Average81 °F90%29.71 "Hg
* Reported May 18 8:00 PM — Jun 2 8:30 PM, Guangzhou, Weather by CustomWeather, © 2015

Note: Actual official high and low records may vary slightly from our data, if they occured in-between our weather recording intervals... More about our weather records

Advertising

Guangzhou weather history for previous 24 hours

 ConditionsComfort  
Time TempWeatherWind HumidityBarometerVisibility
8:30 PM
Tue, Jun 2
84 °FPassing clouds.1 mph89%29.80 "Hg4 mi
8:00 PM84 °FPassing clouds.1 mph89%29.80 "Hg4 mi
7:30 PM84 °FPassing clouds.1 mph94%29.77 "Hg4 mi
7:00 PM84 °FPartly sunny.1 mph89%29.74 "Hg4 mi
6:30 PM86 °FPartly sunny.1 mph84%29.74 "Hg5 mi
6:00 PM84 °FPartly sunny.No wind89%29.74 "Hg5 mi
5:30 PM84 °FScattered clouds.3 mph89%29.71 "HgN/A
5:00 PM84 °FScattered clouds.1 mph89%29.74 "HgN/A
4:30 PM84 °FScattered clouds.No wind84%29.71 "HgN/A
4:00 PM82 °FSprinkles. Scattered clouds.3 mph89%29.71 "HgN/A
3:30 PM81 °FThunderstorms. Scattered clouds.3 mph89%29.71 "HgN/A
3:00 PM84 °FRain showers. Scattered clouds.8 mph89%29.74 "Hg4 mi
2:30 PM90 °FPartly sunny.6 mph71%29.71 "HgN/A
2:00 PM88 °FPartly sunny.6 mph75%29.74 "HgN/A
1:30 PM82 °FSprinkles. Partly sunny.10 mph84%29.74 "HgN/A
1:00 PM91 °FPartly sunny.13 mph63%29.74 "HgN/A
12:30 PM91 °FScattered clouds.10 mph63%29.77 "HgN/A
11:30 AM90 °FScattered clouds.8 mph71%29.77 "HgN/A
11:00 AM90 °FScattered clouds.10 mph75%29.80 "HgN/A
10:30 AM90 °FScattered clouds.10 mph71%29.80 "HgN/A
10:00 AM88 °FBroken clouds.10 mph79%29.80 "HgN/A
9:30 AM88 °FBroken clouds.10 mph79%29.80 "HgN/A
9:00 AM86 °FBroken clouds.10 mph79%29.80 "HgN/A
8:30 AM86 °FScattered clouds.8 mph84%29.80 "HgN/A
8:00 AM86 °FScattered clouds.8 mph79%29.80 "HgN/A
7:30 AM84 °FScattered clouds.3 mph89%29.77 "HgN/A
7:00 AM82 °FPartly sunny.6 mph89%29.77 "HgN/A
6:30 AM82 °FScattered clouds.6 mph89%29.77 "HgN/A
6:00 AM81 °FScattered clouds.6 mph94%29.74 "Hg5 mi
5:30 AM81 °FPassing clouds.1 mph94%29.74 "Hg4 mi
5:00 AM81 °FPassing clouds.3 mph94%29.74 "Hg4 mi
4:30 AM81 °FPassing clouds.1 mph94%29.74 "Hg4 mi
4:00 AM81 °FPassing clouds.No wind94%29.74 "Hg5 mi
3:30 AM81 °FPassing clouds.3 mph94%29.74 "Hg4 mi
3:00 AM82 °FPassing clouds.6 mph89%29.74 "Hg4 mi
2:30 AM82 °FPassing clouds.6 mph89%29.74 "Hg4 mi
2:00 AM82 °FPassing clouds.6 mph89%29.74 "Hg4 mi
1:30 AM82 °FPassing clouds.6 mph94%29.74 "Hg4 mi
1:00 AM81 °FFog.3 mph100%29.74 "Hg3 mi
12:30 AM81 °FFog.1 mph94%29.74 "Hg3 mi
12:00 AM81 °FFog.3 mph94%29.77 "Hg3 mi
11:30 PM
Mon, Jun 1
79 °FFog.6 mph100%29.77 "Hg3 mi
11:00 PM79 °FPassing clouds.3 mph100%29.77 "Hg4 mi
10:30 PM79 °FPassing clouds.3 mph100%29.77 "Hg4 mi
10:00 PM79 °FPassing clouds.6 mph100%29.77 "Hg4 mi
Weather by CustomWeather, © 2015

See weather overviewHow to use our weather pages